Time,TemperatureF,DewpointF,PressureIn,WindDirection,WindDirectionDegrees,WindSpeedMPH,WindSpeedGustMPH,Humidity,HourlyPrecipIn,Conditions,Clouds,dailyrainin,SoftwareType,DateUTC
2013-09-11 00:14:00,80.0,-99.9,-100.00,WNW,302,8.0,10.0,-999,-99.99,,,-99.99,,2013-09-11 04:14:00,
2013-09-11 01:13:00,77.0,-99.9,-100.00,NW,311,6.0,9.0,-999,-99.99,,,-99.99,,2013-09-11 05:13:00,
2013-09-11 02:12:00,75.0,-99.9,-100.00,WNW,297,6.0,8.0,-999,-99.99,,,-99.99,,2013-09-11 06:12:00,
2013-09-11 03:12:00,74.0,-99.9,-100.00,WNW,302,8.0,10.0,-999,-99.99,,,-99.99,,2013-09-11 07:12:00,
2013-09-11 05:12:00,72.0,-99.9,-100.00,WNW,296,7.0,8.0,-999,-99.99,,,-99.99,,2013-09-11 09:12:00,
2013-09-11 06:13:00,71.0,-99.9,-100.00,WNW,290,6.0,9.0,-999,-99.99,,,-99.99,,2013-09-11 10:13:00,
2013-09-11 07:12:00,73.0,-99.9,-100.00,WNW,285,8.0,12.0,-999,-99.99,,,-99.99,,2013-09-11 11:12:00,
2013-09-11 08:11:00,72.0,-99.9,-100.00,WNW,297,9.0,12.0,-999,-99.99,,,-99.99,,2013-09-11 12:11:00,
2013-09-11 10:11:00,71.0,-99.9,-100.00,WNW,299,9.0,14.0,-999,-99.99,,,-99.99,,2013-09-11 14:11:00,
2013-09-11 12:13:00,75.0,-99.9,-100.00,NW,308,10.0,16.0,-999,-99.99,,,-99.99,,2013-09-11 16:13:00,
2013-09-11 13:13:00,80.0,-99.9,-100.00,NW,312,10.0,15.0,-999,-99.99,,,-99.99,,2013-09-11 17:13:00,
2013-09-11 14:12:00,84.0,-99.9,-100.00,NW,311,9.0,15.0,-999,-99.99,,,-99.99,,2013-09-11 18:12:00,
2013-09-11 15:12:00,85.0,-99.9,-100.00,NNW,342,7.0,12.0,-999,-99.99,,,-99.99,,2013-09-11 19:12:00,
2013-09-11 16:12:00,88.0,-99.9,-100.00,NNW,332,6.0,15.0,-999,-99.99,,,-99.99,,2013-09-11 20:12:00,
2013-09-11 17:12:00,91.0,-99.9,-100.00,North,350,6.0,14.0,-999,-99.99,,,-99.99,,2013-09-11 21:12:00,
2013-09-11 18:14:00,93.0,-99.9,-100.00,NNW,345,6.0,17.0,-999,-99.99,,,-99.99,,2013-09-11 22:14:00,
2013-09-11 19:12:00,95.0,-99.9,-100.00,North,1,7.0,15.0,-999,-99.99,,,-99.99,,2013-09-11 23:12:00,
2013-09-11 20:12:00,95.0,-99.9,-100.00,NW,317,8.0,14.0,-999,-99.99,,,-99.99,,2013-09-12 00:12:00,
2013-09-11 21:11:00,95.0,-99.9,-100.00,NNW,345,8.0,14.0,-999,-99.99,,,-99.99,,2013-09-12 01:11:00,
2013-09-11 22:12:00,94.0,-99.9,-100.00,NW,306,8.0,13.0,-999,-99.99,,,-99.99,,2013-09-12 02:12:00,
2013-09-11 23:11:00,88.0,-99.9,-100.00,WNW,284,7.0,10.0,-999,-99.99,,,-99.99,,2013-09-12 03:11:00,